Meteo Giornale » Osservazioni meteo Gran Bretagna » Southend-On-Sea

ore: 20:20 - Osservazioni Meteo Southend-On-Sea
Lat. 51° 34' N Lon. 0° 42' E Alt. 15 metri s.l.m.

sereno

19 °C

Sereno

Temp. 24 Ore

12 °C

23 °C

Sud/Sud-Ovest

22.2 Km/h

Dew point 12 °C

Umidità 63 %

Visibilità  10 Km

Il sole sorge alle ore 06:09

Il sole tramonta alle ore 19:44

Data e Ora Cielo e Fenomeni T °C DP °C Um. % Pres. hPa Vis. km Vento km/h
Oggi h: 20:20 sereno Sereno 19 12 63 1019 10 S/SO 22.2
Oggi h: 19:50 sereno Sereno 21 10 49 1019 10 O/SO 14.8
Oggi h: 19:20 sereno Sereno 22 8 40 1019 10 O 9.3
Oggi h: 18:50 sereno Sereno 22 8 40 1019 10 O 9.3
Oggi h: 18:20 sereno Sereno 22 7 37 1019 10 O/SO 13
Oggi h: 17:50 sereno Sereno 22 7 37 1019 10 O/SO 14.8
Oggi h: 17:20 sereno Sereno 23 8 38 1019 10 O/NO 9.3
Oggi h: 16:50 sereno Sereno 23 7 35 1019 10 SO 18.5
Oggi h: 16:20 sereno Sereno 23 9 40 1019 10 O/SO 20.3
Oggi h: 15:50 sereno Sereno 22 8 40 1019 10 O 16.7
Oggi h: 15:20 sereno Sereno 22 7 37 1019 10 O/SO 14.8
Oggi h: 14:50 sereno Sereno 22 7 37 1019 10 SO 22.2
Oggi h: 14:20 sereno Sereno 22 7 37 1019 10 O/SO 16.7
Oggi h: 13:50 sereno Sereno 22 7 37 1020 10 O/SO 18.5
Oggi h: 13:20 sereno Sereno 21 8 43 1020 10 O/SO 14.8
Oggi h: 12:50 poco_nuvoloso Poco Nuvoloso 21 8 43 1020 10 O 16.7
Oggi h: 12:20 poco_nuvoloso Poco Nuvoloso 21 8 43 1020 10 N 16.7
Oggi h: 11:50 poco_nuvoloso Poco Nuvoloso 20 8 45 1020 10 O 14.8
Oggi h: 11:20 poco_nuvoloso Poco Nuvoloso 20 9 49 1020 10 N 14.8
Oggi h: 10:50 poco_nuvoloso Poco Nuvoloso 19 9 52 1021 10 O/SO 13
Oggi h: 10:20 poco_nuvoloso Poco Nuvoloso 18 11 63 1021 10 O/SO 14.8
Oggi h: 09:50 sereno Sereno 17 11 67 1021 10 O 13
Oggi h: 09:20 sereno Sereno 17 11 67 1020 10 O 13
Oggi h: 08:50 sereno Sereno 16 11 72 1020 10 O 13
Oggi h: 08:20 sereno Sereno 15 11 76 1020 10 O 11.1
Oggi h: 07:50 sereno Sereno 15 11 76 1020 10 O 9.3
Oggi h: 07:20 sereno Sereno 15 11 76 1020 10 O 11.1
Oggi h: 06:50 sereno Sereno 13 10 81 1019 10 O/SO 7.4
Oggi h: 06:20 poco_nuvoloso Poco Nuvoloso 12 10 87 1019 10 N 5.5
Oggi h: 05:50 poco_nuvoloso Poco Nuvoloso 12 10 87 1019 10 N 3.7
Ieri h: 22:50 poco_nuvoloso Poco Nuvoloso 17 12 72 1018 10 O 11.1
Ieri h: 22:20 poco_nuvoloso Poco Nuvoloso 18 12 67 1017 10 O/NO 13
Ieri h: 21:50 poco_nuvoloso Poco Nuvoloso 18 12 67 1017 10 O/NO 11.1
Ieri h: 21:20 nuvoloso Nuvoloso 19 13 68 1017 10 O 13
Ieri h: 20:50 poco_nuvoloso Poco Nuvoloso 19 13 68 1016 10 O 13